TimeEST,TemperatureF,Dew PointF,Humidity,Sea Level PressureIn,VisibilityMPH,Wind Direction,Wind SpeedMPH,Gust SpeedMPH,PrecipitationIn,Events,Conditions,WindDirDegrees,DateUTC
12:15 AM,21.2,14.0,74,30.16,10.0,Calm,Calm,-,N/A,,Clear,0,2014-01-31 05:15:00
12:35 AM,19.4,14.0,80,30.15,10.0,SSW,3.5,-,N/A,,Clear,200,2014-01-31 05:35:00
12:55 AM,17.6,14.0,86,30.16,10.0,Calm,Calm,-,N/A,,Clear,0,2014-01-31 05:55:00
1:15 AM,19.4,15.8,86,30.16,10.0,Calm,Calm,-,N/A,,Clear,0,2014-01-31 06:15:00
1:35 AM,19.4,14.0,80,30.16,10.0,Calm,Calm,-,N/A,,Clear,0,2014-01-31 06:35:00
1:55 AM,19.4,14.0,80,30.16,10.0,Calm,Calm,-,N/A,,Clear,0,2014-01-31 06:55:00
2:15 AM,17.6,12.2,79,30.17,10.0,Calm,Calm,-,N/A,,Clear,0,2014-01-31 07:15:00
2:35 AM,17.6,12.2,79,30.16,10.0,Calm,Calm,-,N/A,,Clear,0,2014-01-31 07:35:00
2:55 AM,19.4,15.8,86,30.15,10.0,Calm,Calm,-,N/A,,Clear,0,2014-01-31 07:55:00
3:15 AM,17.6,12.2,79,30.16,10.0,Calm,Calm,-,N/A,,Clear,0,2014-01-31 08:15:00
3:35 AM,15.8,12.2,86,30.17,10.0,Calm,Calm,-,N/A,,Clear,0,2014-01-31 08:35:00
3:55 AM,17.6,12.2,79,30.17,10.0,Calm,Calm,-,N/A,,Clear,0,2014-01-31 08:55:00
4:15 AM,17.6,12.2,79,30.16,10.0,Calm,Calm,-,N/A,,Clear,0,2014-01-31 09:15:00
4:35 AM,17.6,12.2,79,30.17,10.0,Calm,Calm,-,N/A,,Clear,0,2014-01-31 09:35:00
4:55 AM,19.4,14.0,80,30.16,10.0,Calm,Calm,-,N/A,,Clear,0,2014-01-31 09:55:00
5:15 AM,19.4,14.0,80,30.17,10.0,Calm,Calm,-,N/A,,Clear,0,2014-01-31 10:15:00
5:35 AM,17.6,14.0,86,30.18,10.0,Calm,Calm,-,N/A,,Clear,0,2014-01-31 10:35:00
5:55 AM,17.6,14.0,86,30.18,10.0,Calm,Calm,-,N/A,,Clear,0,2014-01-31 10:55:00
6:15 AM,15.8,12.2,86,30.19,10.0,Calm,Calm,-,N/A,,Clear,0,2014-01-31 11:15:00
6:35 AM,15.8,12.2,86,30.20,10.0,Calm,Calm,-,N/A,,Clear,0,2014-01-31 11:35:00
6:55 AM,15.8,12.2,86,30.20,10.0,Calm,Calm,-,N/A,,Clear,0,2014-01-31 11:55:00
7:15 AM,15.8,12.2,86,30.20,10.0,Calm,Calm,-,N/A,,Clear,0,2014-01-31 12:15:00
7:35 AM,15.8,12.2,86,30.22,10.0,Calm,Calm,-,N/A,,Clear,0,2014-01-31 12:35:00
7:55 AM,15.8,12.2,86,30.22,10.0,Calm,Calm,-,N/A,,Clear,0,2014-01-31 12:55:00
8:15 AM,17.6,14.0,86,30.22,10.0,Calm,Calm,-,N/A,,Clear,0,2014-01-31 13:15:00
8:35 AM,21.2,15.8,80,30.23,10.0,Calm,Calm,-,N/A,,Clear,0,2014-01-31 13:35:00
8:55 AM,21.2,15.8,80,30.23,10.0,Calm,Calm,-,N/A,,Clear,0,2014-01-31 13:55:00
9:15 AM,28.4,17.6,64,30.23,10.0,Calm,Calm,-,N/A,,Clear,0,2014-01-31 14:15:00
9:35 AM,30.2,15.8,55,30.24,10.0,Calm,Calm,-,N/A,,Clear,0,2014-01-31 14:35:00
9:55 AM,32.0,15.8,51,30.23,10.0,SSW,3.5,-,N/A,,Clear,200,2014-01-31 14:55:00
10:15 AM,35.6,15.8,44,30.23,10.0,South,4.6,-,N/A,,Clear,180,2014-01-31 15:15:00
10:35 AM,37.4,15.8,41,30.23,10.0,SW,3.5,-,N/A,,Clear,220,2014-01-31 15:35:00
10:55 AM,37.4,15.8,41,30.23,10.0,ESE,4.6,-,N/A,,Clear,110,2014-01-31 15:55:00
11:15 AM,39.2,14.0,36,30.23,10.0,SE,5.8,-,N/A,,Clear,140,2014-01-31 16:15:00
11:35 AM,39.2,12.2,33,30.22,10.0,Calm,Calm,-,N/A,,Clear,0,2014-01-31 16:35:00
11:55 AM,42.8,12.2,29,30.22,10.0,WSW,6.9,-,N/A,,Clear,240,2014-01-31 16:55:00
12:15 PM,42.8,12.2,29,30.21,10.0,SW,4.6,-,N/A,,Clear,230,2014-01-31 17:15:00
12:35 PM,42.8,12.2,29,30.19,10.0,Variable,4.6,-,N/A,,Clear,0,2014-01-31 17:35:00
12:55 PM,44.6,12.2,27,30.18,10.0,Calm,Calm,-,N/A,,Clear,0,2014-01-31 17:55:00
1:15 PM,44.6,12.2,27,30.18,10.0,SSE,3.5,-,N/A,,Clear,160,2014-01-31 18:15:00
1:35 PM,46.4,15.8,29,30.17,10.0,SW,4.6,-,N/A,,Clear,230,2014-01-31 18:35:00
1:55 PM,48.2,15.8,27,30.16,10.0,Variable,3.5,-,N/A,,Clear,0,2014-01-31 18:55:00
2:15 PM,50.0,17.6,28,30.16,10.0,WSW,5.8,-,N/A,,Clear,250,2014-01-31 19:15:00
2:35 PM,50.0,17.6,28,30.15,10.0,Calm,Calm,-,N/A,,Clear,0,2014-01-31 19:35:00
2:55 PM,50.0,19.4,30,30.14,10.0,Calm,Calm,-,N/A,,Clear,0,2014-01-31 19:55:00
3:15 PM,51.8,21.2,30,30.14,10.0,WSW,4.6,-,N/A,,Clear,240,2014-01-31 20:15:00
3:35 PM,51.8,19.4,28,30.13,10.0,SW,4.6,-,N/A,,Clear,220,2014-01-31 20:35:00
3:55 PM,51.8,17.6,26,30.13,10.0,Calm,Calm,-,N/A,,Clear,0,2014-01-31 20:55:00
4:15 PM,51.8,15.8,24,30.13,10.0,South,4.6,-,N/A,,Clear,180,2014-01-31 21:15:00
4:35 PM,51.8,12.2,21,30.13,10.0,South,5.8,-,N/A,,Clear,180,2014-01-31 21:35:00
4:55 PM,51.8,12.2,21,30.13,10.0,Variable,3.5,-,N/A,,Clear,0,2014-01-31 21:55:00
5:15 PM,51.8,12.2,21,30.13,10.0,South,4.6,-,N/A,,Clear,180,2014-01-31 22:15:00
5:35 PM,50.0,12.2,22,30.13,10.0,SSE,3.5,-,N/A,,Clear,160,2014-01-31 22:35:00
5:55 PM,48.2,12.2,24,30.13,10.0,SSE,3.5,-,N/A,,Clear,160,2014-01-31 22:55:00
6:15 PM,42.8,15.8,34,30.13,10.0,Calm,Calm,-,N/A,,Clear,0,2014-01-31 23:15:00
6:35 PM,39.2,17.6,42,30.13,10.0,Calm,Calm,-,N/A,,Clear,0,2014-01-31 23:35:00
6:55 PM,35.6,19.4,52,30.13,10.0,Calm,Calm,-,N/A,,Clear,0,2014-01-31 23:55:00
7:15 PM,33.8,21.2,60,30.13,10.0,Calm,Calm,-,N/A,,Clear,0,2014-02-01 00:15:00
7:35 PM,32.0,21.2,64,30.13,10.0,Calm,Calm,-,N/A,,Clear,0,2014-02-01 00:35:00
7:55 PM,30.2,21.2,69,30.13,10.0,Calm,Calm,-,N/A,,Clear,0,2014-02-01 00:55:00
8:15 PM,30.2,21.2,69,30.14,10.0,Calm,Calm,-,N/A,,Clear,0,2014-02-01 01:15:00
8:35 PM,28.4,21.2,74,30.14,10.0,Calm,Calm,-,N/A,,Clear,0,2014-02-01 01:35:00
8:55 PM,28.4,21.2,74,30.13,10.0,Calm,Calm,-,N/A,,Clear,0,2014-02-01 01:55:00
9:15 PM,28.4,21.2,74,30.14,10.0,Calm,Calm,-,N/A,,Clear,0,2014-02-01 02:15:00
9:35 PM,26.6,21.2,80,30.14,10.0,Calm,Calm,-,N/A,,Clear,0,2014-02-01 02:35:00
9:55 PM,26.6,21.2,80,30.14,10.0,Calm,Calm,-,N/A,,Clear,0,2014-02-01 02:55:00
10:15 PM,26.6,21.2,80,30.15,10.0,Calm,Calm,-,N/A,,Clear,0,2014-02-01 03:15:00
10:35 PM,26.6,21.2,80,30.14,10.0,Calm,Calm,-,N/A,,Clear,0,2014-02-01 03:35:00
10:55 PM,24.8,19.4,80,30.13,10.0,Calm,Calm,-,N/A,,Clear,0,2014-02-01 03:55:00
11:15 PM,24.8,19.4,80,30.13,10.0,Calm,Calm,-,N/A,,Clear,0,2014-02-01 04:15:00
11:35 PM,24.8,19.4,80,30.12,10.0,Calm,Calm,-,N/A,,Clear,0,2014-02-01 04:35:00
11:55 PM,24.8,21.2,86,30.13,10.0,Calm,Calm,-,N/A,,Clear,0,2014-02-01 04:55:00